Location: Chiroubles
(46.1812°N, 4.6660°E)
Time: 02:56:14
(UTC+00:00)

ERS-1 Rocket - Pass Details

Date: 15 August 2020
Orbit: 754 x 757 km, 98.5° (Epoch: 27 September)

Event Time Altitude Azimuth Distance (km) Brightness Sun altitude
Exits shadow 21:56:13 34° 230° (SW) 1,219 3.9 -25.3°
Maximum altitude 21:57:23 40° 262° (W) 1,114 3.9 -25.4°
Drops below altitude 10° 22:02:06 10° 332° (NNW) 2,289 6.5 -25.8°
Sets 22:04:34 0° 340° (NNW) 3,219 7.5 -26.0°
